M I D A S
Marine Information and Data Acquisition System
Tripno 1207 of the Zeeleeuw from 2007-01-26 07:44:56 to 2007-01-26 15:02:39
Back to CruiseResearch ActivitiesStationsMapUnderway DataData graphs

EquipmentUnitsComment
TimeDGPSUTC
LatitudeDGPSDM.mWGS84
LongitudeDGPSDM.mWGS84
TemperatureSBE03/SBE38deg celciusITS90
ConductivitySBE21S/mITS90
SalinitySBE21 Practical Salinity Units
ChlorophylAChelsea fluorimeterg/lCalibrated in Aceton
Missing or incorrect values are displayed as -999
Sea surface data collected by the RV Zeeleeuw from 2007-01-26 07:45:56 to 2007-01-26 15:12:23
Time Latitude Longitude Temperature Conductivity Salinity ChlorophylA
2007-01-26 07:47:01 51°13.615 2°56.033 15.2173 0.005298 0.032368 -2.871232
2007-01-26 07:48:01 51°13.647 2°55.922 15.3301 0.005298 0.032368 -2.871232
2007-01-26 07:49:01 51°13.676 2°55.831 15.2647 0.005298 0.032368 -2.871232
2007-01-26 07:50:01 51°13.69 2°55.76 15.308 0.005298 0.032368 -2.871232
2007-01-26 07:51:01 51°13.693 2°55.72 15.3611 0.005298 0.032369 -2.871232
2007-01-26 07:52:01 51°13.721 2°55.728 15.4289 0.005298 0.032368 -2.871232
2007-01-26 07:53:01 51°13.786 2°55.678 15.1981 0.005298 0.032368 -2.871232
2007-01-26 07:54:01 51°13.88 2°55.606 14.1276 0.005298 0.032372 -2.871232
2007-01-26 07:55:01 51°13.994 2°55.52 14.1611 0.005298 0.032372 -2.871232
2007-01-26 07:56:01 51°14.112 2°55.434 14.2006 0.005298 0.032372 -2.871232
2007-01-26 07:57:01 51°14.222 2°55.319 14.2118 0.005298 0.032372 -2.871232
2007-01-26 07:58:01 51°14.321 2°55.158 14.2229 0.005298 0.032372 -2.871232
2007-01-26 07:59:01 51°14.422 2°55.021 14.1844 0.005298 0.032372 -2.871232
2007-01-26 08:00:01 51°14.558 2°54.942 14.1802 0.005298 0.032372 -2.871232
2007-01-26 08:01:01 51°14.721 2°54.855 14.179 0.005298 0.032372 -2.871232
2007-01-26 08:02:01 51°14.89 2°54.701 14.1896 0.005298 0.032373 -2.871232
2007-01-26 08:03:01 51°15.074 2°54.522 14.2029 0.005298 0.032374 -2.871232
2007-01-26 08:04:01 51°15.255 2°54.325 14.218 0.005298 0.032375 -2.871232
2007-01-26 08:05:01 51°15.437 2°54.128 14.2342 0.005298 0.032377 -2.871232
2007-01-26 08:06:01 51°15.619 2°53.933 14.2478 0.005298 0.032378 -2.871232
2007-01-26 08:07:01 51°15.805 2°53.743 14.264 0.005298 0.03238 -2.871232
2007-01-26 08:08:01 51°15.99 2°53.55 14.2769 0.005298 0.032382 -2.871232
2007-01-26 08:09:01 51°16.174 2°53.358 14.2899 0.005298 0.032384 -2.871232
2007-01-26 08:10:01 51°16.368 2°53.186 14.2997 0.005298 0.032386 -2.871232
2007-01-26 08:11:01 51°16.563 2°53.017 14.3166 0.005298 0.032388 -2.871232
2007-01-26 08:12:01 51°16.758 2°52.851 14.331 0.005298 0.03239 -2.871232
2007-01-26 08:13:01 51°16.95 2°52.677 14.3462 0.005298 0.032392 -2.871232
2007-01-26 08:14:01 51°17.144 2°52.506 14.3604 0.005298 0.032394 -2.871232
2007-01-26 08:15:01 51°17.358 2°52.398 14.3773 0.005298 0.032396 -2.871232
2007-01-26 08:16:01 51°17.588 2°52.366 14.3911 0.005298 0.032398 -2.871232
2007-01-26 08:17:01 51°17.821 2°52.35 14.4029 0.005298 0.0324 -2.871232
2007-01-26 08:18:01 51°18.054 2°52.33 14.4187 0.005298 0.032402 -2.871232
2007-01-26 08:19:01 51°18.278 2°52.395 14.4384 0.005298 0.032404 -2.871232
2007-01-26 08:20:01 51°18.423 2°52.672 14.4619 0.005298 0.032406 -2.871232
2007-01-26 08:21:01 51°18.495 2°53.026 14.4747 0.005298 0.032409 -2.871232
2007-01-26 08:22:01 51°18.56 2°53.388 14.4852 0.005298 0.032412 -2.871232
2007-01-26 08:23:01 51°18.644 2°53.737 14.5006 0.005298 0.032412 -2.871232
2007-01-26 08:24:01 51°18.727 2°54.089 14.5152 0.005298 0.032412 -2.871232
2007-01-26 08:25:01 51°18.813 2°54.432 14.536 0.005298 0.032415 -2.871232
2007-01-26 08:26:01 51°18.906 2°54.775 14.5089 0.005298 0.032414 -2.871232
2007-01-26 08:27:01 51°18.989 2°55.115 14.5311 0.005298 0.032417 -2.871232
2007-01-26 08:28:01 51°19.074 2°55.46 14.5673 0.005298 0.032419 -2.871232
2007-01-26 08:29:01 51°19.162 2°55.802 14.5797 0.005298 0.032419 -2.871232
2007-01-26 08:30:01 51°19.251 2°56.144 14.6307 0.005298 0.032421 -2.871232
2007-01-26 08:31:01 51°19.34 2°56.484 14.6353 0.005298 0.032424 -2.871232
2007-01-26 08:32:01 51°19.427 2°56.834 14.6558 0.005298 0.032425 -2.871232
2007-01-26 08:33:01 51°19.511 2°57.182 14.6541 0.005298 0.032423 -2.871232
2007-01-26 08:34:01 51°19.599 2°57.531 14.6668 0.005298 0.032425 -2.871232
2007-01-26 08:35:01 51°19.693 2°57.871 14.6731 0.005298 0.032425 -2.871232
2007-01-26 08:36:01 51°19.783 2°58.215 14.7005 0.005298 0.032428 -2.871232
2007-01-26 08:37:01 51°19.876 2°58.557 14.7798 0.005298 0.03243 -2.871232
2007-01-26 08:38:01 51°19.968 2°58.901 14.8357 0.005298 0.032431 -2.871232
2007-01-26 08:39:01 51°20.057 2°59.245 14.8568 0.005298 0.032431 -2.871232
2007-01-26 08:40:01 51°20.146 2°59.576 14.8532 0.005298 0.032431 -2.871232
2007-01-26 08:41:01 51°20.224 2°59.914 14.8921 0.005298 0.032434 -2.871232
2007-01-26 08:42:01 51°20.31 3°0.257 14.8892 0.005298 0.032433 -2.871232
2007-01-26 08:43:01 51°20.398 3°0.6 14.9357 0.005298 0.032436 -2.871232
2007-01-26 08:44:01 51°20.488 3°0.948 14.9896 0.005298 0.032434 -2.871232
2007-01-26 08:45:01 51°20.575 3°1.298 14.9835 0.005298 0.032436 -2.871232
2007-01-26 08:46:01 51°20.663 3°1.642 14.9939 0.005298 0.032439 -2.871232
2007-01-26 08:47:01 51°20.746 3°1.981 15.0527 0.005298 0.032437 -2.871232
2007-01-26 08:48:01 51°20.827 3°2.319 15.0494 0.005298 0.03244 -2.871232
2007-01-26 08:49:01 51°20.912 3°2.658 14.9517 0.005298 0.032439 -2.871232
2007-01-26 08:50:01 51°21.002 3°2.996 15.0907 0.005298 0.032441 -2.871232
2007-01-26 08:51:01 51°21.088 3°3.331 15.0241 0.005298 0.032439 -2.871232
2007-01-26 08:52:01 51°21.175 3°3.666 15.0418 0.005298 0.032441 -2.871232
2007-01-26 08:53:01 51°21.257 3°4.009 15.0489 0.005298 0.032442 -2.871232
2007-01-26 08:54:01 51°21.339 3°4.345 15.0441 0.005298 0.032444 -2.871232
2007-01-26 08:55:01 51°21.429 3°4.678 15.2035 0.005298 0.032444 -2.871232
2007-01-26 08:56:01 51°21.513 3°5.016 15.1536 0.005298 0.032445 -2.871232
2007-01-26 08:57:01 51°21.6 3°5.353 15.2775 0.005298 0.032444 -2.871232
2007-01-26 08:58:01 51°21.684 3°5.691 14.7262 0.005298 0.032446 -2.871232
2007-01-26 08:59:01 51°21.762 3°6.025 14.9316 0.005298 0.032447 -2.871232
2007-01-26 09:00:01 51°21.836 3°6.36 15.0597 0.005298 0.032446 -2.871232
2007-01-26 09:01:01 51°21.877 3°6.703 14.7516 0.005298 0.032447 -2.871232
2007-01-26 09:02:01 51°21.906 3°7.05 15.0666 0.005298 0.032447 -2.871232
2007-01-26 09:03:01 51°21.936 3°7.408 14.9718 0.005298 0.032446 -2.871232
2007-01-26 09:04:01 51°21.979 3°7.76 14.9084 0.005298 0.032449 -2.871232
2007-01-26 09:05:01 51°22.017 3°8.109 14.7009 0.005298 0.032449 -2.871232
2007-01-26 09:06:01 51°22.055 3°8.458 14.6417 0.005298 0.03245 -2.871232
2007-01-26 09:07:01 51°22.086 3°8.799 14.5652 0.005298 0.032449 -2.871232
2007-01-26 09:08:01 51°22.02 3°8.954 15.0017 0.005298 0.032449 -2.871232
2007-01-26 09:09:01 51°21.924 3°8.848 14.7258 0.005298 0.03245 -2.871232
2007-01-26 09:10:01 51°21.804 3°8.766 14.9428 0.005298 0.03245 -2.871232
2007-01-26 09:11:01 51°21.714 3°8.684 14.9627 0.005298 0.032451 -2.871232
2007-01-26 09:12:01 51°21.691 3°8.655 14.9427 0.005298 0.032455 -2.871232
2007-01-26 09:13:01 51°21.686 3°8.655 14.8813 0.005298 0.032459 -2.871232
2007-01-26 09:14:01 51°21.684 3°8.66 14.8836 0.005298 0.032464 -2.871232
2007-01-26 09:15:01 51°21.661 3°8.66 14.9947 0.005298 0.032467 -2.871232
2007-01-26 09:16:01 51°21.613 3°8.583 14.8954 0.005298 0.03247 -2.871232
2007-01-26 09:17:01 51°21.573 3°8.478 15.001 0.005298 0.032473 -2.871232
2007-01-26 09:18:01 51°21.549 3°8.379 14.9934 0.005298 0.032477 -2.871232
2007-01-26 09:19:01 51°21.525 3°8.286 15.0599 0.005298 0.032481 -2.871232
2007-01-26 09:20:01 51°21.504 3°8.2 15.0289 0.005298 0.032484 -2.871232
2007-01-26 09:21:01 51°21.483 3°8.116 15.0773 0.005298 0.032488 -2.871232
2007-01-26 09:22:01 51°21.462 3°8.047 15.0587 0.005298 0.032493 -2.871232
2007-01-26 09:23:01 51°21.444 3°7.974 15.0551 0.005298 0.0325 -2.871232
2007-01-26 09:24:01 51°21.426 3°7.88 15.0869 0.005298 0.032507 -2.871232
2007-01-26 09:25:01 51°21.408 3°7.79 15.1052 0.005298 0.032514 -2.871232
2007-01-26 09:26:01 51°21.388 3°7.713 15.1363 0.005298 0.03252 -2.871232
2007-01-26 09:27:01 51°21.371 3°7.638 15.1556 0.005298 0.032526 -2.871232
2007-01-26 09:28:01 51°21.351 3°7.562 15.1768 0.005298 0.032532 -2.871232
2007-01-26 09:29:01 51°21.332 3°7.483 15.2054 0.005298 0.032537 -2.871232
2007-01-26 09:30:01 51°21.314 3°7.403 15.2059 0.005298 0.032542 -2.871232
2007-01-26 09:31:01 51°21.294 3°7.336 15.2001 0.005298 0.032546 -2.871232
2007-01-26 09:32:01 51°21.274 3°7.268 15.2398 0.005298 0.032551 -2.871232
2007-01-26 09:33:01 51°21.258 3°7.197 15.2226 0.005298 0.032557 -2.871232
2007-01-26 09:34:01 51°21.242 3°7.123 15.2502 0.005298 0.032564 -2.871232
2007-01-26 09:35:01 51°21.225 3°7.048 15.2728 0.005298 0.032572 -2.871232
2007-01-26 09:36:01 51°21.207 3°6.974 15.2981 0.005195 0.032073 -2.871232
2007-01-26 09:37:01 51°21.186 3°6.902 15.2857 0.005195 0.03208 -2.871232
2007-01-26 09:38:01 51°21.164 3°6.828 15.3192 0.005195 0.032086 -2.871232
2007-01-26 09:39:01 51°21.144 3°6.756 15.3141 0.005195 0.032091 -2.871232
2007-01-26 09:40:01 51°21.126 3°6.682 15.3282 0.005195 0.032097 -2.871232
2007-01-26 09:41:01 51°21.108 3°6.61 15.3206 0.005195 0.032101 -2.871232
2007-01-26 09:42:01 51°21.09 3°6.535 15.3462 0.005195 0.032106 -2.871232
2007-01-26 09:43:01 51°21.07 3°6.451 15.3673 0.005195 0.03211 -2.871232
2007-01-26 09:44:01 51°21.051 3°6.361 15.3661 0.005195 0.032116 -2.871232
2007-01-26 09:45:01 51°21.031 3°6.273 15.4007 0.005195 0.032122 -2.871232
2007-01-26 09:46:01 51°21.013 3°6.178 15.4086 0.005195 0.032127 -2.871232
2007-01-26 09:47:01 51°20.991 3°6.094 15.4146 0.005195 0.032133 -2.871232
2007-01-26 09:48:01 51°20.972 3°6.018 15.4105 0.005195 0.03214 -2.871232
2007-01-26 09:49:01 51°20.952 3°5.95 15.4215 0.005195 0.032146 -2.871232
2007-01-26 09:50:01 51°20.934 3°5.879 15.4243 0.005195 0.032151 -2.871232
2007-01-26 09:51:01 51°20.919 3°5.824 15.4449 0.005195 0.032158 -2.871232
2007-01-26 09:52:01 51°20.905 3°5.783 15.4442 0.005195 0.032167 -2.871232
2007-01-26 09:53:01 51°20.894 3°5.751 15.4561 0.005195 0.032176 -2.871232
2007-01-26 09:54:01 51°20.883 3°5.718 15.4434 0.005195 0.032183 -2.871232
2007-01-26 09:55:01 51°20.876 3°5.607 15.4693 0.005195 0.032188 -2.871232
2007-01-26 09:56:01 51°20.891 3°5.511 15.4841 0.005195 0.032193 -2.871232
2007-01-26 09:57:01 51°20.903 3°5.477 15.4524 0.005195 0.032196 -2.871232
2007-01-26 09:58:01 51°20.91 3°5.467 15.4646 0.005195 0.032198 -2.871232
2007-01-26 09:59:01 51°20.943 3°5.477 15.4985 0.005195 0.032199 -2.871232
2007-01-26 10:00:01 51°21.015 3°5.588 15.5229 0.005195 0.032201 -2.871232
2007-01-26 10:01:01 51°21.148 3°5.727 15.51 0.005195 0.032202 -2.871232
2007-01-26 10:02:01 51°21.286 3°5.886 15.5153 0.005195 0.032204 -2.871232
2007-01-26 10:03:01 51°21.421 3°6.051 15.5393 0.005195 0.032205 -2.871232
2007-01-26 10:04:01 51°21.55 3°6.222 15.5051 0.005195 0.032205 -2.871232
2007-01-26 10:05:01 51°21.68 3°6.397 15.5465 0.005195 0.032206 -2.871232
2007-01-26 10:06:01 51°21.791 3°6.658 15.5748 0.005195 0.032213 -2.871232
2007-01-26 10:07:01 51°21.851 3°6.971 15.515 0.005195 0.03221 -2.871232
2007-01-26 10:08:01 51°21.902 3°7.29 15.4644 0.005195 0.032205 -2.871232
2007-01-26 10:09:01 51°21.951 3°7.609 15.4535 0.005195 0.032211 -2.871232
2007-01-26 10:10:01 51°21.99 3°7.927 15.5362 0.005195 0.032219 -2.871232
2007-01-26 10:11:01 51°22.028 3°8.237 15.4885 0.005195 0.032216 -2.871232
2007-01-26 10:12:01 51°22.068 3°8.555 15.356 0.005195 0.032226 -2.871232
2007-01-26 10:13:01 51°22.098 3°8.871 15.5163 0.005195 0.032228 -2.871232
2007-01-26 10:14:01 51°22.127 3°9.181 15.3773 0.005195 0.032223 -2.871232
2007-01-26 10:15:01 51°22.153 3°9.493 15.4821 0.005195 0.032227 -2.871232
2007-01-26 10:16:01 51°22.189 3°9.802 15.546 0.005195 0.032224 -2.871232
2007-01-26 10:17:01 51°22.228 3°10.113 15.3634 0.005195 0.032226 -2.871232
2007-01-26 10:18:01 51°22.268 3°10.427 15.5123 0.005195 0.032222 -2.871232
2007-01-26 10:19:01 51°22.309 3°10.746 15.581 0.005195 0.03223 -2.871232
2007-01-26 10:20:01 51°22.357 3°11.056 15.5751 0.005195 0.032231 -2.871232
2007-01-26 10:21:01 51°22.4 3°11.364 15.5047 0.005195 0.032233 -2.871232
2007-01-26 10:22:01 51°22.446 3°11.663 15.4171 0.005195 0.032233 -2.871232
2007-01-26 10:23:01 51°22.497 3°11.966 15.5538 0.005195 0.032236 -2.871232
2007-01-26 10:24:01 51°22.55 3°12.266 15.2089 0.005195 0.032237 -2.871232
2007-01-26 10:25:01 51°22.6 3°12.564 15.5475 0.005195 0.032238 -2.871232
2007-01-26 10:26:01 51°22.641 3°12.872 15.4055 0.005092 0.031727 -2.871232
2007-01-26 10:27:01 51°22.741 3°13.139 15.5553 0.005092 0.031729 -2.871232
2007-01-26 10:28:01 51°22.935 3°13.225 15.4556 0.005195 0.032244 -2.871232
2007-01-26 10:29:01 51°23.151 3°13.184 15.4315 0.005092 0.031731 -2.871232
2007-01-26 10:30:01 51°23.369 3°13.145 15.5065 0.005195 0.032245 -2.871232
2007-01-26 10:31:01 51°23.587 3°13.102 15.4657 0.005092 0.031733 -2.871232
2007-01-26 10:32:01 51°23.807 3°13.059 15.5131 0.005092 0.031735 -2.871232
2007-01-26 10:33:01 51°24.027 3°13.013 15.5693 0.005092 0.031736 -2.871232
2007-01-26 10:34:01 51°24.248 3°12.971 15.5322 0.005092 0.031737 -2.871232
2007-01-26 10:35:01 51°24.468 3°12.924 15.5584 0.005092 0.031739 -2.871232
2007-01-26 10:36:01 51°24.687 3°12.868 15.6203 0.005092 0.03174 -2.871232
2007-01-26 10:37:01 51°24.908 3°12.825 15.5716 0.005092 0.03174 -2.871232
2007-01-26 10:38:01 51°25.121 3°12.73 15.5315 0.005092 0.031744 -2.871232
2007-01-26 10:39:01 51°25.27 3°12.458 15.5479 0.005092 0.031746 -2.871232
2007-01-26 10:40:01 51°25.247 3°12.092 15.6323 0.005092 0.03175 -2.871232
2007-01-26 10:41:01 51°25.174 3°11.732 15.6593 0.005092 0.031751 -2.871232
2007-01-26 10:42:01 51°25.115 3°11.363 15.6559 0.005092 0.031756 -2.871232
2007-01-26 10:43:01 51°25.064 3°10.99 15.6814 0.005092 0.031761 -2.871232
2007-01-26 10:44:01 51°25.017 3°10.62 15.697 0.005092 0.031766 -2.871232
2007-01-26 10:45:01 51°24.972 3°10.254 15.6875 0.005092 0.031772 -2.871232
2007-01-26 10:46:01 51°24.925 3°9.89 15.6927 0.005092 0.03178 -2.871232
2007-01-26 10:47:01 51°24.88 3°9.527 15.7484 0.005092 0.031785 -2.871232
2007-01-26 10:48:01 51°24.838 3°9.158 15.7419 0.005092 0.031794 -2.871232
2007-01-26 10:49:01 51°24.795 3°8.789 15.7672 0.005092 0.031797 -2.871232
2007-01-26 10:50:01 51°24.753 3°8.418 15.7852 0.005092 0.031805 -2.871232
2007-01-26 10:51:01 51°24.712 3°8.049 15.8006 0.005092 0.03181 -2.871232
2007-01-26 10:52:01 51°24.683 3°7.683 15.7959 0.005092 0.031818 -2.871232
2007-01-26 10:53:01 51°24.788 3°7.38 15.7718 0.005092 0.031823 -2.871232
2007-01-26 10:54:01 51°24.998 3°7.283 15.7915 0.005092 0.031829 -2.871232
2007-01-26 10:55:01 51°25.215 3°7.226 15.7956 0.005092 0.031834 -2.871232
2007-01-26 10:56:01 51°25.436 3°7.175 15.796 0.005092 0.031837 -2.871232
2007-01-26 10:57:01 51°25.656 3°7.128 15.7939 0.005092 0.03184 -2.871232
2007-01-26 10:58:01 51°25.875 3°7.083 15.7924 0.005092 0.031841 -2.871232
2007-01-26 10:59:01 51°26.078 3°7.163 15.8492 0.005092 0.031841 -2.871232
2007-01-26 11:00:01 51°26.189 3°7.442 15.5476 0.005092 0.031841 -2.871232
2007-01-26 11:01:01 51°26.273 3°7.751 15.8059 0.005092 0.03184 -2.871232
2007-01-26 11:02:01 51°26.358 3°8.074 15.6519 0.005092 0.031835 -2.871232
2007-01-26 11:03:01 51°26.451 3°8.394 15.7191 0.005092 0.031836 -2.871232
2007-01-26 11:04:01 51°26.545 3°8.713 15.8298 0.005092 0.031841 -2.871232
2007-01-26 11:05:01 51°26.662 3°9.001 15.5778 0.005092 0.031841 -2.871232
2007-01-26 11:06:01 51°26.872 3°9.013 15.6177 0.005092 0.031844 -2.871232
2007-01-26 11:07:01 51°27.045 3°8.809 15.761 0.005092 0.031845 -2.871232
2007-01-26 11:08:01 51°27.225 3°8.598 15.7951 0.005092 0.031846 -2.871232
2007-01-26 11:09:01 51°27.411 3°8.407 15.803 0.005092 0.031847 -2.871232
2007-01-26 11:10:01 51°27.591 3°8.227 15.8211 0.005092 0.031849 -2.871232
2007-01-26 11:11:01 51°27.774 3°8.039 15.8221 0.005092 0.031849 -2.871232
2007-01-26 11:12:01 51°27.951 3°7.858 15.8103 0.005092 0.031851 -2.871232
2007-01-26 11:13:01 51°28.122 3°7.685 15.8376 0.005092 0.031852 -2.871232
2007-01-26 11:14:01 51°28.288 3°7.521 15.8467 0.005092 0.031853 -2.871232
2007-01-26 11:15:01 51°28.456 3°7.348 15.8851 0.005092 0.031854 -2.871232
2007-01-26 11:16:01 51°28.618 3°7.181 15.883 0.005092 0.031854 -2.871232
2007-01-26 11:17:01 51°28.786 3°7.01 15.8832 0.005092 0.031855 -2.871232
2007-01-26 11:18:01 51°28.952 3°6.838 15.9046 0.005092 0.031856 -2.871232
2007-01-26 11:19:01 51°29.117 3°6.669 15.9156 0.005092 0.031857 -2.871232
2007-01-26 11:20:01 51°29.285 3°6.487 15.9409 0.005092 0.031858 -2.871232
2007-01-26 11:21:01 51°29.445 3°6.324 15.9308 0.005092 0.031859 -2.871232
2007-01-26 11:22:01 51°29.608 3°6.152 15.9155 0.005092 0.03186 -2.871232
2007-01-26 11:23:01 51°29.769 3°5.98 15.9507 0.005092 0.031861 -2.871232
2007-01-26 11:24:01 51°29.94 3°5.816 15.9462 0.005092 0.031862 -2.871232
2007-01-26 11:25:01 51°30.1 3°5.639 15.9198 0.005092 0.031863 -2.871232
2007-01-26 11:26:01 51°30.158 3°5.339 15.9732 0.005092 0.031864 -2.871232
2007-01-26 11:27:01 51°30.089 3°5.029 15.9915 0.005092 0.031867 -2.871232
2007-01-26 11:28:01 51°29.951 3°4.785 16.0425 0.005092 0.031866 -2.871232
2007-01-26 11:29:02 51°29.796 3°4.543 15.9378 0.005092 0.031869 -2.871232
2007-01-26 11:30:02 51°29.643 3°4.308 15.9884 0.005092 0.03187 -2.871232
2007-01-26 11:31:01 51°29.491 3°4.069 16.0166 0.005092 0.031876 -2.871232
2007-01-26 11:32:02 51°29.336 3°3.82 16.0789 0.005092 0.031879 -2.871232
2007-01-26 11:33:01 51°29.188 3°3.576 16.0455 0.005092 0.031882 -2.871232
2007-01-26 11:34:02 51°29.035 3°3.324 16.0374 0.005092 0.031889 -2.871232
2007-01-26 11:35:02 51°28.883 3°3.079 16.0459 0.005092 0.03189 -2.871232
2007-01-26 11:36:02 51°28.733 3°2.831 16.0554 0.005092 0.031898 -2.871232
2007-01-26 11:37:02 51°28.582 3°2.585 16.1215 0.005092 0.031902 -2.871232
2007-01-26 11:38:02 51°28.431 3°2.335 16.1111 0.005092 0.0319 -2.871232
2007-01-26 11:39:02 51°28.278 3°2.083 16.0534 0.005092 0.031905 -2.871232
2007-01-26 11:40:02 51°28.125 3°1.833 16.1017 0.005092 0.031913 -2.871232
2007-01-26 11:41:02 51°27.973 3°1.582 16.1635 0.005092 0.031923 -2.871232
2007-01-26 11:42:02 51°27.822 3°1.332 16.1215 0.005092 0.031925 -2.871232
2007-01-26 11:43:02 51°27.669 3°1.087 16.1224 0.005092 0.031926 -2.871232
2007-01-26 11:44:02 51°27.517 3°0.842 16.1823 0.005092 0.031936 -2.871232
2007-01-26 11:45:02 51°27.362 3°0.594 16.1965 0.005092 0.031939 -2.871232
2007-01-26 11:46:02 51°27.207 3°0.342 16.2037 0.005092 0.031944 -2.871232
2007-01-26 11:47:02 51°27.053 3°0.098 16.2547 0.005092 0.031952 -2.871232
2007-01-26 11:48:02 51°26.9 2°59.844 16.253 0.005092 0.031952 -2.871232
2007-01-26 11:49:01 51°26.751 2°59.599 16.1909 0.005092 0.031963 -2.871232
2007-01-26 11:50:02 51°26.596 2°59.353 16.2133 0.005092 0.031969 -2.871232
2007-01-26 11:51:02 51°26.448 2°59.112 16.2837 0.004989 0.031446 -2.871232
2007-01-26 11:52:02 51°26.356 2°58.829 16.275 0.004989 0.031447 -2.871232
2007-01-26 11:53:02 51°26.395 2°58.516 16.2776 0.004989 0.031458 -2.871232
2007-01-26 11:54:02 51°26.542 2°58.327 16.2662 0.004989 0.031465 -2.871232
2007-01-26 11:55:02 51°26.73 2°58.295 16.2746 0.004989 0.031468 -2.871232
2007-01-26 11:56:02 51°26.915 2°58.368 16.2175 0.004989 0.03147 -2.871232
2007-01-26 11:57:02 51°27.099 2°58.452 16.2075 0.004989 0.031472 -2.871232
2007-01-26 11:58:02 51°27.284 2°58.538 16.2846 0.004989 0.031472 -2.871232
2007-01-26 11:59:02 51°27.466 2°58.632 16.2992 0.004989 0.031473 -2.871232
2007-01-26 12:00:02 51°27.653 2°58.719 16.2411 0.004989 0.031472 -2.871232
2007-01-26 12:01:02 51°27.84 2°58.8 16.2345 0.004989 0.031472 -2.871232
2007-01-26 12:02:02 51°28.026 2°58.876 16.2768 0.004989 0.031476 -2.871232
2007-01-26 12:03:02 51°28.214 2°58.956 16.3253 0.004989 0.031475 -2.871232
2007-01-26 12:04:02 51°28.398 2°59.04 16.2784 0.004989 0.031475 -2.871232
2007-01-26 12:05:02 51°28.585 2°59.124 16.3 0.004989 0.031476 -2.871232
2007-01-26 12:06:02 51°28.772 2°59.21 16.2919 0.004989 0.031476 -2.871232
2007-01-26 12:07:02 51°28.959 2°59.292 16.3513 0.004989 0.031477 -2.871232
2007-01-26 12:08:02 51°29.142 2°59.375 16.3268 0.004989 0.031477 -2.871232
2007-01-26 12:09:02 51°29.325 2°59.451 16.3273 0.004989 0.031478 -2.871232
2007-01-26 12:10:02 51°29.508 2°59.535 16.3508 0.004989 0.031477 -2.871232
2007-01-26 12:11:02 51°29.691 2°59.616 16.33 0.004989 0.031479 -2.871232
2007-01-26 12:12:02 51°29.872 2°59.697 16.3643 0.004989 0.031478 -2.871232
2007-01-26 12:13:02 51°30.054 2°59.773 16.3481 0.004989 0.03148 -2.871232
2007-01-26 12:14:02 51°30.235 2°59.851 16.3918 0.004989 0.03148 -2.871232
2007-01-26 12:15:02 51°30.416 2°59.925 16.3822 0.004989 0.031481 -2.871232
2007-01-26 12:16:02 51°30.601 2°59.986 16.3766 0.004989 0.03148 -2.871232
2007-01-26 12:17:02 51°30.79 3°0.044 16.4076 0.004989 0.031482 -2.871232
2007-01-26 12:18:02 51°30.975 3°0.108 16.4026 0.004989 0.031482 -2.871232
2007-01-26 12:19:02 51°31.154 3°0.168 16.4165 0.004989 0.031484 -2.871232
2007-01-26 12:20:02 51°31.33 3°0.231 16.3924 0.004989 0.031486 -2.871232
2007-01-26 12:21:02 51°31.507 3°0.289 16.4153 0.004989 0.031487 -2.871232
2007-01-26 12:22:02 51°31.677 3°0.348 16.3984 0.004989 0.031488 -2.871232
2007-01-26 12:23:02 51°31.852 3°0.41 16.4323 0.004989 0.031488 -2.871232
2007-01-26 12:24:02 51°32.027 3°0.471 16.4262 0.004989 0.031489 -2.871232
2007-01-26 12:25:02 51°32.199 3°0.532 16.4447 0.004989 0.031489 -2.871232
2007-01-26 12:26:02 51°32.369 3°0.595 16.4044 0.004989 0.03149 -2.871232
2007-01-26 12:27:02 51°32.541 3°0.656 16.4429 0.004989 0.03149 -2.871232
2007-01-26 12:28:02 51°32.711 3°0.72 16.3976 0.004989 0.031491 -2.871232
2007-01-26 12:29:02 51°32.879 3°0.778 16.469 0.004989 0.031491 -2.871232
2007-01-26 12:30:02 51°33.054 3°0.837 16.4452 0.004989 0.031492 -2.871232
2007-01-26 12:31:02 51°33.225 3°0.896 16.4733 0.004989 0.031493 -2.871232
2007-01-26 12:32:02 51°33.395 3°0.954 16.4814 0.004989 0.031494 -2.871232
2007-01-26 12:33:02 51°33.57 3°1.012 16.4695 0.004989 0.031495 -2.871232
2007-01-26 12:34:02 51°33.743 3°1.072 16.4975 0.004989 0.031495 -2.871232
2007-01-26 12:35:02 51°33.911 3°1.137 16.5038 0.004989 0.031496 -2.871232
2007-01-26 12:36:02 51°34.079 3°1.19 16.511 0.004989 0.031497 -2.871232
2007-01-26 12:37:02 51°34.248 3°1.157 16.5188 0.004989 0.031498 -2.871232
2007-01-26 12:38:02 51°34.413 3°1.103 16.505 0.004989 0.031499 -2.871232
2007-01-26 12:39:02 51°34.58 3°1.05 16.5257 0.004989 0.031499 -2.871232
2007-01-26 12:40:02 51°34.75 3°0.997 16.5468 0.004989 0.0315 -2.871232
2007-01-26 12:41:02 51°34.923 3°0.944 16.5555 0.004989 0.0315 -2.871232
2007-01-26 12:42:02 51°35.099 3°0.891 16.5724 0.004989 0.031501 -2.871232
2007-01-26 12:43:02 51°35.275 3°0.832 16.5876 0.004989 0.031501 -2.871232
2007-01-26 12:44:02 51°35.453 3°0.775 16.5885 0.004989 0.031502 -2.871232
2007-01-26 12:45:02 51°35.592 3°0.633 16.4986 0.004989 0.031503 -2.871232
2007-01-26 12:46:02 51°35.602 3°0.354 16.5851 0.004989 0.031503 -2.871232
2007-01-26 12:47:02 51°35.486 3°0.096 16.6009 0.004989 0.031503 -2.871232
2007-01-26 12:48:02 51°35.352 2°59.843 16.6211 0.004989 0.031506 -2.871232
2007-01-26 12:49:02 51°35.218 2°59.586 16.6139 0.004989 0.031508 -2.871232
2007-01-26 12:50:02 51°35.085 2°59.33 16.6305 0.004989 0.03151 -2.871232
2007-01-26 12:51:02 51°34.953 2°59.079 16.6436 0.004989 0.031514 -2.871232
2007-01-26 12:52:02 51°34.82 2°58.83 16.6632 0.004989 0.031518 -2.871232
2007-01-26 12:53:02 51°34.688 2°58.583 16.6353 0.004989 0.031523 -2.871232
2007-01-26 12:54:02 51°34.557 2°58.329 16.6749 0.004989 0.031528 -2.871232
2007-01-26 12:55:02 51°34.426 2°58.092 16.6679 0.004989 0.031531 -2.871232
2007-01-26 12:56:02 51°34.304 2°57.862 16.6906 0.004989 0.031536 -2.871232
2007-01-26 12:57:02 51°34.177 2°57.623 16.7129 0.004989 0.031543 -2.871232
2007-01-26 12:58:02 51°34.053 2°57.393 16.7337 0.004989 0.031547 -2.871232
2007-01-26 12:59:02 51°33.93 2°57.16 16.7488 0.004989 0.031553 -2.871232
2007-01-26 13:00:02 51°33.802 2°56.919 16.7518 0.004989 0.031558 -2.871232
2007-01-26 13:01:02 51°33.676 2°56.683 16.7804 0.004989 0.03156 -2.871232
2007-01-26 13:02:02 51°33.555 2°56.441 16.7841 0.004989 0.031568 -2.871232
2007-01-26 13:03:02 51°33.435 2°56.211 16.7821 0.004989 0.031572 -2.871232
2007-01-26 13:04:02 51°33.322 2°55.965 16.8076 0.004989 0.031578 -2.871232
2007-01-26 13:05:02 51°33.204 2°55.717 16.8239 0.004989 0.031583 -2.871232
2007-01-26 13:06:02 51°33.089 2°55.473 16.8342 0.004989 0.031587 -2.871232
2007-01-26 13:07:02 51°32.974 2°55.227 16.8384 0.004989 0.031592 -2.871232
2007-01-26 13:08:02 51°32.859 2°54.98 16.8524 0.004989 0.031598 -2.871232
2007-01-26 13:09:02 51°32.745 2°54.732 16.8552 0.004989 0.031603 -2.871232
2007-01-26 13:10:02 51°32.631 2°54.489 16.8725 0.004989 0.031608 -2.871232
2007-01-26 13:11:02 51°32.521 2°54.246 16.8694 0.004989 0.031611 -2.871232
2007-01-26 13:12:02 51°32.408 2°54.001 16.8752 0.004989 0.031616 -2.871232
2007-01-26 13:13:02 51°32.297 2°53.759 16.8998 0.004989 0.03162 -2.871232
2007-01-26 13:14:02 51°32.187 2°53.515 16.9129 0.004989 0.031626 -2.871232
2007-01-26 13:15:02 51°32.076 2°53.265 16.9206 0.004989 0.031624 -2.871232
2007-01-26 13:16:02 51°31.965 2°53.011 16.933 0.004989 0.031634 -2.871232
2007-01-26 13:17:02 51°31.86 2°52.751 16.9251 0.004989 0.031639 -2.871232
2007-01-26 13:18:02 51°31.758 2°52.5 16.9431 0.004989 0.031641 -2.871232
2007-01-26 13:19:02 51°31.659 2°52.235 16.9574 0.004989 0.031645 -2.871232
2007-01-26 13:20:02 51°31.56 2°51.972 16.9575 0.004887 0.031117 -2.871232
2007-01-26 13:21:02 51°31.461 2°51.706 16.9817 0.004887 0.031121 -2.871232
2007-01-26 13:22:02 51°31.362 2°51.45 16.9833 0.004887 0.031124 -2.871232
2007-01-26 13:23:02 51°31.265 2°51.193 16.9978 0.004887 0.031128 -2.871232
2007-01-26 13:24:02 51°31.162 2°50.937 17.0012 0.004887 0.031128 -2.871232
2007-01-26 13:25:02 51°31.056 2°50.697 17.0146 0.004887 0.031134 -2.871232
2007-01-26 13:26:02 51°30.951 2°50.449 17.0322 0.004887 0.031138 -2.871232
2007-01-26 13:27:02 51°30.845 2°50.193 17.0394 0.004887 0.031141 -2.871232
2007-01-26 13:28:02 51°30.741 2°49.937 17.0483 0.004887 0.031145 -2.871232
2007-01-26 13:29:02 51°30.633 2°49.682 17.0605 0.004887 0.031143 -2.871232
2007-01-26 13:30:02 51°30.528 2°49.433 17.0637 0.004887 0.031148 -2.871232
2007-01-26 13:31:02 51°30.472 2°49.163 17.0832 0.004887 0.031151 -2.871232
2007-01-26 13:32:02 51°30.562 2°48.98 17.0698 0.004887 0.031159 -2.871232
2007-01-26 13:33:02 51°30.707 2°49.01 17.0737 0.004887 0.031162 -2.871232
2007-01-26 13:34:02 51°30.864 2°49.024 17.0861 0.004887 0.031164 -2.871232
2007-01-26 13:35:02 51°31.021 2°48.989 17.1063 0.004887 0.031165 -2.871232
2007-01-26 13:36:02 51°31.123 2°49.161 17.1173 0.004887 0.031163 -2.871232
2007-01-26 13:37:02 51°31.09 2°49.423 17.1325 0.004887 0.03116 -2.871232
2007-01-26 13:38:02 51°30.964 2°49.648 17.133 0.004887 0.031165 -2.871232
2007-01-26 13:39:02 51°30.775 2°49.724 17.12 0.004887 0.031157 -2.871232
2007-01-26 13:40:02 51°30.576 2°49.679 17.1208 0.004887 0.031159 -2.871232
2007-01-26 13:41:02 51°30.372 2°49.667 17.1315 0.004887 0.031162 -2.871232
2007-01-26 13:42:02 51°30.171 2°49.707 17.1399 0.004887 0.031162 -2.871232
2007-01-26 13:43:02 51°29.971 2°49.758 17.1749 0.004887 0.03116 -2.871232
2007-01-26 13:44:02 51°29.769 2°49.801 17.1506 0.004887 0.031161 -2.871232
2007-01-26 13:45:02 51°29.569 2°49.846 17.1815 0.004887 0.03116 -2.871232
2007-01-26 13:46:02 51°29.371 2°49.886 17.2068 0.004887 0.031162 -2.871232
2007-01-26 13:47:02 51°29.174 2°49.921 17.161 0.004887 0.031161 -2.871232
2007-01-26 13:48:02 51°28.978 2°49.963 17.1689 0.004887 0.03116 -2.871232
2007-01-26 13:49:02 51°28.779 2°49.996 17.1459 0.004887 0.031161 -2.871232
2007-01-26 13:50:02 51°28.58 2°50.028 17.1588 0.004887 0.031161 -2.871232
2007-01-26 13:51:02 51°28.381 2°50.06 17.2299 0.004887 0.031161 -2.871232
2007-01-26 13:52:02 51°28.183 2°50.089 17.2012 0.004887 0.031163 -2.871232
2007-01-26 13:53:02 51°27.986 2°50.121 17.2305 0.004887 0.031163 -2.871232
2007-01-26 13:54:02 51°27.789 2°50.155 17.1947 0.004887 0.031165 -2.871232
2007-01-26 13:55:02 51°27.591 2°50.184 17.2424 0.004887 0.031163 -2.871232
2007-01-26 13:56:02 51°27.393 2°50.219 17.2703 0.004887 0.031163 -2.871232
2007-01-26 13:57:02 51°27.194 2°50.252 17.2909 0.004887 0.031166 -2.871232
2007-01-26 13:58:02 51°26.993 2°50.284 17.2475 0.004887 0.031169 -2.871232
2007-01-26 13:59:02 51°26.795 2°50.318 17.2875 0.004887 0.031168 -2.871232
2007-01-26 14:00:02 51°26.597 2°50.357 17.3502 0.004887 0.031171 -2.871232
2007-01-26 14:01:02 51°26.401 2°50.392 17.3351 0.004887 0.031172 -2.871232
2007-01-26 14:02:02 51°26.202 2°50.423 17.2865 0.004887 0.031166 -2.871232
2007-01-26 14:03:02 51°26.007 2°50.456 17.3195 0.004887 0.031169 -2.871232
2007-01-26 14:04:02 51°25.813 2°50.493 17.354 0.004887 0.031172 -2.871232
2007-01-26 14:05:02 51°25.618 2°50.526 17.3692 0.004887 0.031173 -2.871232
2007-01-26 14:06:02 51°25.422 2°50.558 17.3669 0.004887 0.031174 -2.871232
2007-01-26 14:07:02 51°25.225 2°50.59 17.333 0.004887 0.031176 -2.871232
2007-01-26 14:08:02 51°25.026 2°50.623 17.4031 0.004887 0.031176 -2.871232
2007-01-26 14:09:02 51°24.83 2°50.655 17.4215 0.004887 0.031176 -2.871232
2007-01-26 14:10:02 51°24.632 2°50.685 17.3812 0.004887 0.03118 -2.871232
2007-01-26 14:11:02 51°24.436 2°50.72 17.3425 0.004887 0.03118 -2.871232
2007-01-26 14:12:02 51°24.239 2°50.761 17.4433 0.004887 0.031181 -2.871232
2007-01-26 14:13:02 51°24.044 2°50.804 17.4395 0.004887 0.031182 -2.871232
2007-01-26 14:14:02 51°23.848 2°50.844 17.4609 0.004887 0.031181 -2.871232
2007-01-26 14:15:02 51°23.651 2°50.883 17.3653 0.004887 0.031182 -2.871232
2007-01-26 14:16:02 51°23.456 2°50.926 17.4367 0.004887 0.031184 -2.871232
2007-01-26 14:17:02 51°23.26 2°50.969 17.3284 0.004887 0.031186 -2.871232
2007-01-26 14:18:02 51°23.062 2°51.017 17.4914 0.004887 0.031187 -2.871232
2007-01-26 14:19:02 51°22.866 2°51.06 17.3936 0.004887 0.031188 -2.871232
2007-01-26 14:20:02 51°22.672 2°51.104 17.4719 0.004887 0.03119 -2.871232
2007-01-26 14:21:02 51°22.48 2°51.15 17.5183 0.004887 0.031191 -2.871232
2007-01-26 14:22:02 51°22.288 2°51.193 17.5307 0.004887 0.031193 -2.871232
2007-01-26 14:23:02 51°22.095 2°51.236 17.3927 0.004887 0.031192 -2.871232
2007-01-26 14:24:02 51°21.902 2°51.285 17.5205 0.004887 0.031192 -2.871232
2007-01-26 14:25:02 51°21.709 2°51.325 17.4148 0.004887 0.031191 -2.871232
2007-01-26 14:26:02 51°21.518 2°51.367 17.4528 0.004887 0.031194 -2.871232
2007-01-26 14:27:02 51°21.327 2°51.407 17.5497 0.004887 0.031194 -2.871232
2007-01-26 14:28:02 51°21.137 2°51.448 17.5515 0.004887 0.031195 -2.871232
2007-01-26 14:29:02 51°20.947 2°51.491 17.4923 0.004887 0.031197 -2.871232
2007-01-26 14:30:02 51°20.755 2°51.536 17.5518 0.004887 0.031199 -2.871232
2007-01-26 14:31:02 51°20.563 2°51.579 17.5399 0.004887 0.031199 -2.871232
2007-01-26 14:32:02 51°20.37 2°51.627 17.4707 0.004887 0.031202 -2.871232
2007-01-26 14:33:02 51°20.177 2°51.678 17.5058 0.004887 0.031203 -2.871232
2007-01-26 14:34:02 51°19.977 2°51.726 17.5288 0.004887 0.031208 -2.871232
2007-01-26 14:35:02 51°19.771 2°51.776 17.6247 0.004887 0.031206 -2.871232
2007-01-26 14:36:02 51°19.564 2°51.825 17.6262 0.004887 0.031205 -2.871232
2007-01-26 14:37:02 51°19.36 2°51.877 17.6349 0.004887 0.031208 -2.871232
2007-01-26 14:38:02 51°19.154 2°51.925 17.5574 0.004887 0.031207 -2.871232
2007-01-26 14:39:02 51°18.948 2°51.979 17.6329 0.004887 0.031208 -2.871232
2007-01-26 14:40:02 51°18.744 2°52.029 17.6613 0.004887 0.031211 -2.871232
2007-01-26 14:41:02 51°18.537 2°52.066 17.6183 0.004887 0.031211 -2.871232
2007-01-26 14:42:02 51°18.331 2°52.106 17.621 0.004887 0.03121 -2.871232
2007-01-26 14:43:02 51°18.125 2°52.151 17.565 0.004887 0.031213 -2.871232
2007-01-26 14:44:02 51°17.917 2°52.196 17.5952 0.004887 0.031214 -2.871232
2007-01-26 14:45:02 51°17.71 2°52.242 17.6347 0.004887 0.031213 -2.871232
2007-01-26 14:46:02 51°17.502 2°52.286 17.6514 0.004887 0.031215 -2.871232
2007-01-26 14:47:02 51°17.294 2°52.331 17.5675 0.004887 0.031216 -2.871232
2007-01-26 14:48:02 51°17.088 2°52.38 17.505 0.004887 0.031218 -2.871232
2007-01-26 14:49:02 51°16.883 2°52.426 17.5347 0.004887 0.03122 -2.871232
2007-01-26 14:50:02 51°16.673 2°52.486 17.5816 0.004887 0.031223 -2.871232
2007-01-26 14:51:02 51°16.453 2°52.557 17.5373 0.004887 0.031223 -2.871232
2007-01-26 14:52:02 51°16.238 2°52.655 17.6459 0.004887 0.031223 -2.871232
2007-01-26 14:53:02 51°16.032 2°52.803 17.7021 0.004887 0.031221 -2.871232
2007-01-26 14:54:02 51°15.835 2°52.995 17.576 0.004887 0.031224 -2.871232
2007-01-26 14:55:02 51°15.637 2°53.177 17.7484 0.004887 0.031224 -2.871232
2007-01-26 14:56:02 51°15.44 2°53.354 17.7287 0.004887 0.031223 -2.871232
2007-01-26 14:57:02 51°15.24 2°53.534 17.7378 0.004887 0.031224 -2.871232
2007-01-26 14:58:02 51°15.045 2°53.714 17.5803 0.004887 0.031223 -2.871232
2007-01-26 14:59:02 51°14.881 2°53.953 17.5636 0.004887 0.031222 -2.871232
2007-01-26 15:00:02 51°14.738 2°54.211 17.7267 0.004887 0.031225 -2.871232
2007-01-26 15:01:02 51°14.601 2°54.509 17.7085 0.004887 0.031225 -2.871232
2007-01-26 15:02:02 51°14.474 2°54.813 17.7067 0.004887 0.031224 -2.871232
2007-01-26 15:03:02 51°14.345 2°55.112 17.6775 0.004887 0.031223 -2.871232
2007-01-26 15:04:02 51°14.19 2°55.363 17.7325 0.004887 0.031223 -2.871232
2007-01-26 15:05:02 51°14.031 2°55.486 17.696 0.004887 0.031222 -2.871232
2007-01-26 15:06:02 51°13.883 2°55.593 17.7295 0.004887 0.031222 -2.871232
2007-01-26 15:07:02 51°13.761 2°55.71 17.7267 0.004887 0.031222 -2.871232
2007-01-26 15:08:03 51°13.685 2°55.833 17.7422 0.004887 0.031222 -2.871232
2007-01-26 15:09:02 51°13.642 2°55.932 17.7418 0.004887 0.031223 -2.871232
2007-01-26 15:10:02 51°13.612 2°56.022 17.7386 0.004887 0.031224 -2.871232
2007-01-26 15:11:03 51°13.601 2°56.083 17.7595 0.004887 0.031224 -2.871232
2007-01-26 15:12:02 51°13.597 2°56.093 17.7586 0.004887 0.031224 -2.871232